This demonstration page uses our WeatherBlox Daily Observations layout. Learn more.

Left ArrowRight Arrow

Hourly Observations for September 5, 2015

Temp ( °F °C ) Dew Point ( °F °C ) Humidity (%) Winds ( mph kmh ) Pressure ( in mb ) Visibility ( mi km ) Precip ( " mm )
12:53 am 00:53 Clear 77 25 64 17.8 64 64 S 9 15 29.83 1010 10 16 0.00 0.00
1:53 am 01:53 Clear 76 24.4 64 17.8 67 67 S 8 13 29.83 1010 10 16 0.00 0.00
2:53 am 02:53 Clear 75 23.9 64 17.8 69 69 SSE 9 15 29.83 1010 10 16 0.00 0.00
3:53 am 03:53 Clear 75 23.9 64 17.8 69 69 S 9 15 29.83 1010 10 16 0.00 0.00
4:53 am 04:53 Clear 74 23.3 65 18.3 74 74 S 12 19 29.83 1010 10 16 0.00 0.00
5:53 am 05:53 Clear 74 23.3 65 18.3 74 74 undefined N/A 29.83 1010 10 16 0.00 0.00
6:53 am 06:53 Clear 73 22.8 65 18.3 76 76 S 10 17 29.83 1010 10 16 0.00 0.00
7:53 am 07:53 Sunny 74 23.3 66 18.9 76 76 S 12 19 29.84 1011 10 16 0.00 0.00
8:53 am 08:53 Sunny 77 25 66 18.9 69 69 S 13 20 29.85 1011 10 16 0.00 0.00
9:53 am 09:53 Sunny 81 27.2 66 18.9 61 61 S 12 19 29.85 1011 10 16 0.00 0.00
10:53 am 10:53 Sunny 84 28.9 67 19.4 57 57 S 16 26 29.85 1011 10 16 0.00 0.00
11:53 am 11:53 Sunny 87 30.6 66 18.9 50 50 S 16 26 29.85 1011 10 16 0.00 0.00
12:53 pm 12:53 Sunny 87 30.6 66 18.9 50 50 S 13 20 29.83 1010 10 16 0.00 0.00
1:53 pm 13:53 Sunny 90 32.2 66 18.9 45 45 S 16 26 29.81 1010 10 16 0.00 0.00
2:53 pm 14:53 Sunny 91 32.8 66 18.9 44 44 S 16 26 29.80 1009 10 16 0.00 0.00
3:53 pm 15:53 Sunny 93 33.9 65 18.3 40 40 S 15 24 29.78 1008 10 16 0.00 0.00
4:53 pm 16:53 Sunny 94 34.4 64 17.8 37 37 S 20 31 29.77 1008 10 16 0.00 0.00
5:53 pm 17:53 Sunny 91 32.8 63 17.2 39 39 S 14 22 29.77 1008 10 16 0.00 0.00
6:53 pm 18:53 Sunny 90 32.2 65 18.3 44 44 SSE 13 20 29.76 1008 10 16 0.00 0.00
7:53 pm 19:53 Sunny 88 31.1 66 18.9 48 48 SSE 15 24 29.77 1008 10 16 0.00 0.00
8:53 pm 20:53 Clear 85 29.4 65 18.3 51 51 SSE 16 26 29.78 1009 10 16 0.00 0.00
9:53 pm 21:53 Clear 83 28.3 65 18.3 55 55 SSE 14 22 29.80 1009 10 16 0.00 0.00
10:53 pm 22:53 Clear 81 27.2 66 18.9 61 61 SSE 15 24 29.80 1009 10 16 0.00 0.00
11:53 pm 23:53 Clear 80 26.7 67 19.4 64 64 SSE 15 24 29.79 1009 10 16 0.00 0.00

Powered by AerisWeather